User: anonymous   Login
Location: Fort Wayne
(41.1310°N, 85.1290°W)
Time: 12:09:17
(UTC-04:00)
Language:

SL-08 RB Rocket - Orbit

View from above orbital plane
View from above orbital plane
View from above satellite
View from above satellite

Ground track
Ground track

The orbit data is extracted from the following two-line orbital elements,

1 26387U 00033D   14296.84615027  .00001357  00000-0  24711-3 0  6459
2 26387 098.0926 003.0848 0027573 163.9862 321.2554 14.67447609765956
Epoch (UTC): 23 October 2014 20:18:27
Eccentricity: 0.0027573
inclination: 98.0926°
perigee height: 650 km
apogee height: 688 km
right ascension of ascending node: 3.0848°
argument of perigee: 163.9862°
revolutions per day: 14.67447609
mean anomaly at epoch: 321.2554°
orbit number at epoch: 76595

The dashed part of the orbit path shows where the satellite is in the earth's shadow,  

DLR